Location: LDNL
(36.4545°S, 141.6685°E)
Time: 16:10:31
(UTC+10:00)

Courier 1B Rocket - Pass Details

Date: 11 August 2022
Orbit: 920 x 1202 km, 28.2° (Epoch: 25 September)

Event Time Altitude Azimuth Distance (km) Brightness Sun altitude
Exits shadow 06:02:54 13° 301° (WNW) 2,906 7.0 -16.1°
Maximum altitude 06:09:26 43° 7° (N) 1,580 6.2 -14.8°
Drops below altitude 10° 06:16:18 10° 75° (ENE) 2,969 9.0 -13.5°
Sets 06:19:08 0° 82° (E) 3,884 10.2 -12.9°
